{"data":{"norad_id":68005,"epoch":"2026-05-24T22:48:47.406816Z","epoch_age_seconds":86107,"freshness":"FRESH","line1":"1 68005U 26039V   26144.95054869  .00016861  00000+0  62069-3 0  9999","line2":"2 68005  43.0027 338.4948 0001657 275.4578  84.6084 15.27588011 13364","mean_motion":15.27588011,"eccentricity":0.0001657,"inclination_deg":43.0027,"raan_deg":338.4948,"arg_perigee_deg":275.4578,"mean_anomaly_deg":84.6084,"bstar":0.00062069,"rev_number":1336,"period_min":94.266254358552,"perigee_km":481.88821376719,"apogee_km":484.16200288989,"semimajor_km":6861.1621083285,"source":"CELESTRAK","updated_at":"2026-05-25T13:38:21.783090Z"}}